FW1703 Weather Reports


time (UTC)temp
F
wind
direction
speed
knots
gust
knots
rain 1hr
in
rain 24hr
in
rain mn
in
humidity
%
barometer
mb
20260831224533 75 99 0.0 1.7 0.00 0.04 0.04 89 1017.5
20260831223031 76 161 0.0 1.7 0.00 0.04 0.04 87 1017.5
20260831221535 77 163 0.0 1.7 0.00 0.04 0.04 86 1017.7
20260831220028 76 163 0.0 1.7 0.00 0.04 0.04 86 1017.8
20260831214533 76 163 0.0 1.7 0.00 0.04 0.04 87 1017.9
20260831213026 76 72 0.0 1.7 0.00 0.04 0.04 85 1018.0
20260831211526 76 165 0.0 1.7 0.00 0.04 0.04 87 1018.0
20260831210024 76 37 0.0 2.6 0.00 0.04 0.04 87 1018.2
20260831204524 76 74 0.0 1.7 0.00 0.04 0.04 90 1018.4
20260831203022 75 25 0.0 1.7 0.00 0.04 0.04 88 1018.5
20260831201522 75 58 0.0 1.7 0.01 0.04 0.04 89 1018.7
20260831200022 75 66 0.0 1.7 0.01 0.04 0.04 90 1018.7
20260831194522 74 342 0.0 0.0 0.01 0.04 0.04 94 1018.8
20260831193034 74 342 0.0 1.7 0.02 0.04 0.04 91 1019.0
20260831191520 74 342 0.0 1.7 0.03 0.03 0.03 90 1019.4
20260831190037 74 350 0.0 1.7 0.03 0.03 0.03 89 1019.3
20260831184520 74 28 0.0 1.7 0.03 0.03 0.03 88 1019.2
20260831183018 77 183 0.0 1.7 0.02 0.02 0.02 80 1019.4
20260831181518 79 314 0.0 2.6 0.00 0.00 0.00 72 1019.5
20260831180017 80 15 0.0 2.6 0.00 0.00 0.00 71 1019.3
20260831174516 80 59 0.0 1.7 0.00 0.00 0.00 71 1019.5
20260831173015 78 128 0.0 1.7 0.00 0.00 0.00 77 1019.3
20260831171514 79 69 0.0 1.7 0.00 0.00 0.00 73 1019.4
20260831170014 78 22 0.0 1.7 0.00 0.00 0.00 75 1019.5
20260831164519 78 43 0.0 1.7 0.00 0.00 0.00 74 1019.6
20260831163017 78 88 0.9 2.6 0.00 0.00 0.00 75 1019.6
20260831161512 78 22 0.0 1.7 0.00 0.00 0.00 77 1019.7
20260831160013 78 163 0.0 1.7 0.00 0.00 0.00 74 1019.7
20260831154522 80 182 0.0 1.7 0.00 0.00 0.00 71 1019.6
20260831153014 79 34 0.9 4.3 0.00 0.00 0.00 74 1019.7
20260831151506 78 194 0.0 2.6 0.00 0.00 0.00 78 1019.9
20260831150004 76 171 0.9 2.6 0.00 0.00 0.00 79 1019.9
20260831144502 76 217 0.0 2.6 0.00 0.00 0.00 80 1020.0
20260831143058 74 120 0.0 0.9 0.00 0.00 0.00 83 1020.0
20260831141601 74 171 0.0 1.7 0.00 0.00 0.00 81 1020.1
20260831140056 74 140 0.0 0.0 0.00 0.00 0.00 85 1020.0
20260831134601 74 140 0.0 1.7 0.00 0.00 0.00 84 1020.2
20260831133103 74 21 0.0 1.7 0.00 0.00 0.00 82 1020.1
20260831131557 74 177 0.0 1.7 0.00 0.00 0.00 85 1020.0
20260831130050 73 32 0.0 2.6 0.00 0.00 0.00 89 1020.0
20260831124548 72 155 0.9 2.6 0.00 0.00 0.00 90 1020.0
20260831123047 71 155 0.0 1.7 0.00 0.00 0.00 92 1019.8
20260831121546 71 155 0.0 1.7 0.00 0.00 0.00 93 1019.9
20260831120046 70 155 0.0 0.0 0.00 0.00 0.00 95 1019.8
20260831114544 70 155 0.0 1.7 0.00 0.00 0.00 97 1019.8
20260831113044 69 155 0.0 0.9 0.00 0.00 0.00 98 1019.5
20260831111544 69 155 0.0 1.7 0.00 0.00 0.00 99 1019.5
20260831110039 69 155 0.0 0.0 0.00 0.00 0.00 99 1019.3
20260831104550 69 155 0.0 0.0 0.00 0.00 0.00 99 1019.1
20260831103036 69 155 0.0 0.0 0.00 0.00 0.00 99 1019.0
20260831101543 69 155 0.0 0.0 0.00 0.00 0.00 99 1018.9
20260831100034 69 155 0.0 0.0 0.00 0.00 0.00 99 1018.7
20260831094540 69 155 0.0 0.0 0.00 0.00 0.00 99 1018.6
20260831093043 70 155 0.0 0.0 0.00 0.00 0.00 99 1018.6
20260831091541 70 155 0.0 0.0 0.00 0.00 0.00 99 1018.6
20260831090031 70 155 0.0 0.9 0.00 0.00 0.00 99 1018.6
20260831084607 70 155 0.0 0.0 0.00 0.00 0.00 98 1018.4
20260831083028 70 155 0.0 0.0 0.00 0.00 0.00 98 1018.6
20260831081526 70 155 0.0 0.9 0.00 0.00 0.00 98 1018.5
20260831080038 71 155 0.0 0.0 0.00 0.00 0.00 98 1018.3
20260831074541 71 155 0.0 0.0 0.00 0.00 0.00 97 1018.4
20260831073024 71 155 0.0 1.7 0.00 0.00 0.00 97 1018.4
20260831071621 71 156 0.0 0.0 0.00 0.00 0.00 97 1018.5
20260831070023 72 156 0.0 1.7 0.00 0.00 0.00 97 1018.6
20260831064524 72 156 0.0 1.7 0.00 0.00 0.00 96 1018.6
20260831063018 72 156 0.0 1.7 0.00 0.00 0.00 96 1018.5
20260831061517 72 36 0.0 1.7 0.00 0.00 0.00 97 1018.7
20260831060016 72 36 0.0 1.7 0.00 0.00 0.00 96 1018.8
20260831054519 72 36 0.0 0.0 0.00 0.00 0.00 96 1018.4
20260831053012 73 36 0.0 0.9 0.00 0.00 0.00 96 1018.4
20260831051523 73 36 0.0 0.0 0.00 0.00 0.00 95 1018.4
20260831050009 73 36 0.0 1.7 0.00 0.00 0.00 95 1018.4
20260831044512 73 36 0.0 0.0 0.00 0.00 0.00 94 1018.6
20260831043007 74 36 0.0 0.0 0.00 0.00 0.00 93 1018.5
20260831041511 74 36 0.0 0.9 0.00 0.00 0.00 92 1018.6
20260831040018 75 36 0.0 1.7 0.00 0.00 0.00 90 1018.6
20260831034507 75 323 0.0 1.7 0.00 0.00 0.00 89 1018.7
20260831033008 76 342 0.0 1.7 0.00 0.00 0.00 89 1018.8
20260831031508 76 271 0.0 1.7 0.00 0.00 0.00 89 1019.0
20260831030005 76 249 0.0 1.7 0.00 0.00 0.00 89 1019.1
20260831024507 76 266 0.0 1.7 0.00 0.00 0.00 88 1019.2
20260831023003 76 311 0.9 4.3 0.00 0.00 0.00 88 1019.0
20260831021504 76 205 0.0 1.7 0.00 0.00 0.00 90 1018.9
20260831020003 76 200 0.0 1.7 0.00 0.00 0.00 91 1018.8
20260831014504 76 227 0.0 2.6 0.00 0.00 0.00 92 1018.8
20260831013005 76 126 0.0 1.7 0.00 0.00 0.00 93 1018.8
20260831011502 76 126 0.0 0.9 0.00 0.00 0.00 93 1018.9
20260831010000 76 126 0.0 1.7 0.00 0.00 0.00 92 1018.5
20260831004603 76 126 0.0 0.0 0.00 0.00 0.00 91 1018.3
20260831003059 76 126 0.0 0.0 0.00 0.00 0.00 90 1018.0
20260831001618 77 156 0.0 1.7 0.00 0.00 0.00 89 1017.9
20260831000058 77 156 0.0 0.9 0.00 0.00 0.00 88 1017.8
20260830234557 78 167 0.0 1.7 0.00 0.00 0.00 85 1017.7
20260830233114 80 180 0.0 3.5 0.00 0.00 0.00 81 1017.8
20260830231559 81 292 0.0 1.7 0.00 0.00 0.00 78 1017.7
20260830230109 81 205 0.0 1.7 0.00 0.00 0.00 77 1017.7